Terug naar catalogus

STARLINK-36431

ActiefCommunicatieVLEO
NORAD 67421·PAYLOAD·🇺🇸 United States

Gelanceerd Jan 12, 2026 vanaf Cape Canaveral Space Force Station

Loading…

Volgende Passages (komende 24 uur)

TLE

VersSource: CelesTrak SupGP

Epoch: Sep 15, 2026, 03:31 UTC

1 67421C 26005T   26258.14701389 -.00052325  00000+0 -18954-2 0  2584
2 67421  42.9999 248.3555 0001331 267.6053 241.8054 15.27602096    16

Volg STARLINK-36431 in realtime met AllMySat

Download on the App Store